[Iaude] MPEC L25: 2022 LG [a=2.11,e=0.57,i=6.5,H=24.8]

mpec at marsden.cfa.harvard.edu mpec at marsden.cfa.harvard.edu
Sat Jun 4 09:02:12 EDT 2022


M.P.E.C. 2022-L25                                  Issued 2022 June 4, 13:00 UT

     The Minor Planet Electronic Circulars contain information on unusual
         minor planets and routine data on comets.  They are published
    on behalf of Division F of the International Astronomical Union by the
          Minor Planet Center, Smithsonian Astrophysical Observatory,
                          Cambridge, MA 02138, U.S.A.

             Prepared using the Tamkin Foundation Computer Network

                              MPC at CFA.HARVARD.EDU
            URL https://www.minorplanetcenter.net/    ISSN 1523-6714

                                    2022 LG                                     


Observations:
     K22L00G* C2022 06 02.28387014 14 57.891-09 43 58.77         20.98wUEL025F52
     K22L00G  C2022 06 02.29480614 15 06.944-09 46 06.67         20.81wUEL025F52
     K22L00G  C2022 06 02.30573014 15 16.030-09 48 14.99         20.50wUEL025F52
     K22L00G  C2022 06 02.31667514 15 25.099-09 50 23.08         20.83wUEL025F52
     K22L00G  C2022 06 02.45913914 17 22.785-10 17 45.18         20.41GVEL025F52
     K22L00G  C2022 06 02.45976914 17 23.292-10 17 52.34         20.52GVEL025F52
     K22L00G IC2022 06 02.88246514 23 23.81 -11 36 47.1          20.6 VdEL025L01
     K22L00G pC2022 06 02.88440414 23 25.39 -11 37 07.4          20.7 VdEL025L01
     K22L00G pC2022 06 02.88634014 23 26.95 -11 37 27.8          20.7 VdEL025L01
     K22L00G IC2022 06 02.89221114 23 31.52 -11 38 31.8          20.5 VdEL025L01
     K22L00G pC2022 06 02.89560614 23 34.26 -11 39 06.6          20.6 VdEL025L01
     K22L00G KC2022 06 02.93311914 24 10.106-11 43 55.96               XEL025Y00
     K22L00G KC2022 06 02.94354214 24 18.137-11 45 47.92         20.1 GXEL025Y00
     K22L00G 1C2022 06 02.94691 14 24 15.15 -11 48 21.4          21.1 VXEL025033
     K22L00G 1C2022 06 02.94818 14 24 16.06 -11 48 35.2          20.7 VXEL025033
     K22L00G 1C2022 06 02.94945 14 24 17.13 -11 48 48.2          21.1 VXEL025033
     K22L00G KC2022 06 02.95376914 24 26.110-11 47 36.89         19.8 GXEL025Y00
     K22L00G KC2022 06 03.12267314 26 40.54 -12 19 01.7          20.9 VuEL025H21
     K22L00G KC2022 06 03.12826714 26 44.85 -12 19 59.5          20.7 VuEL025H21
     K22L00G KC2022 06 03.13385914 26 49.11 -12 20 57.6          20.8 VuEL025H21
     K22L00G KC2022 06 03.15626 14 27 07.13 -12 24 48.7          20.5 RqEL025H36
     K22L00G KC2022 06 03.16772 14 27 15.84 -12 26 47.5          20.8 RqEL025H36
     K22L00G KC2022 06 03.17529 14 27 21.47 -12 28 05.0          20.4 RqEL025H36
     K22L00G KC2022 06 03.18101814 27 27.486-12 28 56.17         21.07GVEL025I52
     K22L00G KC2022 06 03.18171914 27 28.044-12 29 03.01         20.74GVEL025I52
     K22L00G KC2022 06 03.18242114 27 28.580-12 29 10.57         20.84GVEL025I52
     K22L00G KC2022 06 03.18312514 27 29.099-12 29 17.59         20.79GVEL025I52
     K22L00G  C2022 06 03.19296414 27 37.263-12 31 01.25         20.7 GVEL025654
     K22L00G  C2022 06 03.21621614 27 54.867-12 35 00.58         20.7 GVEL025654
     K22L00G  C2022 06 03.24056714 28 13.212-12 39 09.77         20.7 GVEL025654
     K22L00G KC2022 06 04.13586 14 39 30.60 -15 01 54.2          20.8 RqEL025H36
     K22L00G KC2022 06 04.14342 14 39 35.70 -15 03 01.1          19.9 RqEL025H36
     K22L00G KC2022 06 04.15666 14 39 44.69 -15 04 58.9          20.3 RqEL025H36
     K22L00G KC2022 06 04.18244714 40 03.918-15 08 41.42         21.28GVEL025I52
     K22L00G KC2022 06 04.18332714 40 04.508-15 08 49.24         20.61GVEL025I52
     K22L00G KC2022 06 04.18420614 40 05.095-15 08 56.87         21.25GVEL025I52
     K22L00G KC2022 06 04.18508814 40 05.484-15 09 02.16               VEL025I52

Observer details:
033 Karl Schwarzschild Observatory, Tautenburg.  Observers S. Melnikov, C.
    Hoegner, U. Laux, F. Ludwig, B. Stecklum.  Measurer B. Stecklum.  1.34-m
    f/3 Schmidt + CCD.
654 Table Mountain Observatory, Wrightwood-PHMC.  Observers N. Evans, P. Choi,
    N. Saini, C. Zhai, R. Trahan, M. Shao.  1.0-m Reflector + CCD.
F52 Pan-STARRS 2, Haleakala.  Observers J. Bulger, T. Lowe, A. Schultz, I.
    Smith, K. Chambers, T. Dukes.  Measurers K. Chambers, S. Chastel, T. de
    Boer, J. Fairlamb, H. Gao, M. Huber, C.-C. Lin, E. Magnier, Y.
    Ramanjooloo, R. Wainscoat, R. Weryk.  1.8-m Ritchey-Chretien + CCD.
H21 Astronomical Research Observatory, Westfield.  Observer R. Holmes.
    Measurers T. Linder, R. Holmes, L. Horn.  0.76-m f/3.0 astrograph + CCD.
H36 Sandlot Observatory, Scranton.  Observer G. Hug.  .56 meter Reflector +
    CCD.
I52 Steward Observatory, Mt. Lemmon Station.  Observers D. Rankin, G. J.
    Leonard.  Measurers E. J. Christensen, D. Fay, J. B. Fazekas, D. C. Fuls,
    A. R. Gibbs, A. D. Grauer, H. Groeller, J. K. Hogan, R. A. Kowalski, S. M.
    Larson, G. J. Leonard, D. Rankin, R. L. Seaman, A. Serrano, F. C. Shelly,
    K. W. Wierzchos.  1.0-m prime focus + CCD.
L01 Visnjan Observatory, Tican.  Observers K. Korlevic, I. Lyon.  Measurer K.
    Korlevic.  1.0-m f/2.9 reflector + CCD.
Y00 SONEAR Observatory, Oliveira.  Observer C. Jacques.  0.45-m f/2.9 0.45-m
    f/2.9 reflector + CCD.

Orbital elements:
2022 LG                                                  Earth MOID = 0.0240 AU
Epoch 2022 Jan. 21.0 TT = JDT 2459600.5                 Veres                   
M 331.59061              (2000.0)            P               Q                  
n   0.32237730     Peri.  121.22609     -0.97100734     +0.21343351             
a   2.1064917      Node    71.28427     -0.23903850     -0.87126825             
e   0.5732189      Incl.    6.52701     +0.00231045     -0.44197034             
P   3.06           H   24.88          G   0.15           U   8                  
Residuals in seconds of arc
220602 F52  0.5+  0.4-    220602 033  0.8+  0.2+    220603 I52  0.1-  0.1+
220602 F52  0.2-  0.3+    220602 033  0.5-  0.2-    220603 654  0.2-  0.1+
220602 F52  0.0   0.2+    220602 033  0.4+  0.3+    220603 654  0.1+  0.0
220602 F52  0.1-  0.2+    220602 Y00  0.7-  0.2+    220603 654  0.0   0.0
220602 F52  0.1+  0.1+    220603 H21  0.5-  0.5-    220604 H36  0.6+  0.3-
220602 F52  0.1-  0.1+    220603 H21  0.1-  0.1-    220604 H36  0.5-  0.5+
220602 L01  1.4-  0.5-    220603 H21  0.3-  0.1-    220604 H36  1.2-  1.0+
220602 L01  0.7-  0.1+    220603 H36  1.5+  0.1+    220604 I52  0.2+  0.0
220602 L01  0.2-  0.4+    220603 H36  1.2+  0.3-    220604 I52  0.1+  0.0
220602 L01  1.1-  0.5-    220603 H36  0.6-  0.3+    220604 I52  0.0   0.2+
220602 L01  0.2-  1.1+    220603 I52  0.3-  0.3-    220604 I52 (3.0-  2.7+)
220602 Y00  0.4+  0.8-    220603 I52  0.1+  0.1+
220602 Y00  1.0-  0.6-    220603 I52  0.1+  0.2-

Ephemeris:
2022 LG                  a,e,i = 2.11, 0.57, 7                   q = 0.8990
Date    TT    R. A. (2000) Decl.     Delta      r    Elong.  Phase     V
2022 05 05    06 52 01.3 +42 44 16   0.1835  0.9249    58.2   112.1    25.3
...
2022 05 20    09 24 13.6 +39 47 42   0.08271 0.9913    73.4   102.0    23.2
...
2022 05 28    12 33 41.8 +13 28 55   0.05886 1.0394   114.9    62.2    21.0
...
2022 06 03    14 25 00.0 -11 55 59   0.07822 1.0797   145.7    32.0    20.9
2022 06 04    14 37 50.2 -14 39 57   0.08376 1.0868   148.6    29.1    21.0
2022 06 05    14 49 21.8 -17 01 03   0.08971 1.0938   151.0    26.7    21.0
...
2022 06 11    15 38 24.4 -25 42 33   0.1312  1.1378   157.8    19.7    21.7
...
2022 06 19    16 14 06.1 -30 24 30   0.1956  1.1995   157.8    18.6    22.7
...
2022 07 04    16 48 57.2 -33 04 18   0.3353  1.3207   151.3    21.7    24.2

M. P. C. Staff               (C) Copyright 2022 MPC           M.P.E.C. 2022-L25




More information about the Iaude mailing list